Overview Statistics Trail Chart Weather Telemetry Raw packets
 

This is the latest recevied weather packets stored in our database for station/object AA7VG. If no packets are shown the sender has not sent any weather packets the latest 10 day(s).

<< 4 5 6 7 8 9 10 >>
Time Temp. Humidity Pressure Rain* Wind** Luminosity Snow
1788581430 16.11° C 47% 1013.1 hPa 0 mm - - -
1788581129 16.67° C 46% 1013.3 hPa 0 mm - - -
1788580828 16.67° C 45% 1013.3 hPa 0 mm - - -
1788580523 16.67° C 45% 1013.1 hPa 0 mm - - -
1788580220 17.22° C 42% 1013 hPa 0 mm - - -
1788579915 17.78° C 41% 1013.1 hPa 0 mm - - -
1788579615 17.22° C 42% 1013.1 hPa 0 mm - - -
1788579309 17.78° C 42% 1013 hPa 0 mm - - -
1788579005 17.78° C 43% 1013.1 hPa 0 mm - - -
1788578699 17.78° C 42% 1013.1 hPa 0 mm - - -
1788578394 17.78° C 43% 1013.1 hPa 0 mm - - -
1788578090 18.33° C 43% 1013 hPa 0 mm - - -
1788577785 18.33° C 42% 1012.8 hPa 0 mm - - -
1788577480 18.89° C 41% 1013.3 hPa 0 mm - - -
1788577179 19.44° C 37% 1013 hPa 0 mm - - -
1788576875 19.44° C 35% 1012.8 hPa 0 mm - - -
1788576572 20° C 33% 1012.7 hPa 0 mm - - -
1788576271 20° C 33% 1012.6 hPa 0 mm - - -
1788575967 20.56° C 33% 1012.7 hPa 0 mm - - -
1788575662 21.11° C 32% 1012.7 hPa 0 mm - - -
1788575361 21.67° C 29% 1012.6 hPa 0 mm - - -
1788575057 21.67° C 29% 1012.7 hPa 0 mm - - -
1788574752 21.67° C 29% 1012.5 hPa 0 mm - - -
1788574446 22.78° C 28% 1012.3 hPa 0 mm - - -
1788574141 22.78° C 27% 1011.9 hPa 0 mm - - -

* Rain latest hour (hover to see other rain measurements)
** Current wind speed in m/s (hover to see current wind gust speed)